| time (UTC) | temp F | wind direction | speed knots | gust knots | rain 1hr in | rain 24hr in | rain mn in | humidity % | barometer mb |
| 20260906104043 | 70 | 154 | 0.0 | 0.0 | 0.00 | 0.41 | 0.41 | 99 | 1023.3 |
| 20260906103542 | 70 | 154 | 0.0 | 0.0 | 0.00 | 0.41 | 0.41 | 99 | 1023.5 |
| 20260906103037 | 70 | 154 | 0.0 | 0.0 | 0.00 | 0.41 | 0.41 | 99 | 1023.5 |
| 20260906102537 | 70 | 154 | 0.0 | 0.0 | 0.00 | 0.41 | 0.41 | 99 | 1023.5 |
| 20260906102032 | 70 | 154 | 0.0 | 0.0 | 0.00 | 0.41 | 0.41 | 99 | 1023.2 |
| 20260906101526 | 70 | 154 | 0.0 | 0.0 | 0.00 | 0.41 | 0.41 | 99 | 1023.5 |
| 20260906101021 | 70 | 154 | 0.0 | 0.0 | 0.00 | 0.41 | 0.41 | 99 | 1023.2 |
| 20260906100517 | 69 | 154 | 0.0 | 0.0 | 0.00 | 0.41 | 0.41 | 99 | 1023.4 |
| 20260906100012 | 70 | 154 | 0.0 | 0.0 | 0.00 | 0.41 | 0.41 | 99 | 1023.1 |
| 20260906095507 | 70 | 154 | 0.0 | 0.0 | 0.00 | 0.41 | 0.41 | 99 | 1023.0 |
| 20260906095002 | 70 | 156 | 0.0 | 0.0 | 0.00 | 0.41 | 0.41 | 99 | 1023.2 |
| 20260906094501 | 70 | 154 | 0.0 | 0.9 | 0.00 | 0.41 | 0.41 | 99 | 1023.2 |
| 20260906093957 | 70 | 154 | 0.9 | 1.7 | 0.00 | 0.41 | 0.41 | 99 | 1023.1 |
| 20260906093453 | 70 | 155 | 0.0 | 0.0 | 0.00 | 0.41 | 0.41 | 99 | 1023.0 |
| 20260906092953 | 70 | 155 | 0.0 | 0.0 | 0.00 | 0.41 | 0.41 | 99 | 1022.9 |
| 20260906092448 | 70 | 158 | 0.0 | 0.9 | 0.00 | 0.41 | 0.41 | 99 | 1022.9 |
| 20260906091943 | 70 | 154 | 0.0 | 0.0 | 0.00 | 0.41 | 0.41 | 99 | 1022.7 |
| 20260906091439 | 70 | 154 | 0.0 | 0.0 | 0.00 | 0.41 | 0.41 | 99 | 1022.6 |
| 20260906090935 | 70 | 154 | 0.0 | 0.0 | 0.00 | 0.41 | 0.41 | 99 | 1022.9 |
| 20260906090430 | 70 | 155 | 0.0 | 0.0 | 0.00 | 0.41 | 0.41 | 99 | 1022.8 |
| 20260906085924 | 70 | 154 | 0.0 | 0.0 | 0.00 | 0.41 | 0.41 | 99 | 1022.9 |
| 20260906085423 | 70 | 154 | 0.0 | 0.0 | 0.00 | 0.41 | 0.41 | 99 | 1022.6 |
| 20260906084922 | 70 | 154 | 0.0 | 0.0 | 0.00 | 0.41 | 0.41 | 99 | 1022.7 |
| 20260906084418 | 70 | 154 | 0.0 | 0.0 | 0.00 | 0.41 | 0.41 | 99 | 1022.8 |
| 20260906083917 | 70 | 154 | 0.0 | 0.0 | 0.00 | 0.41 | 0.41 | 99 | 1022.9 |
| 20260906083413 | 70 | 154 | 0.0 | 0.0 | 0.00 | 0.41 | 0.41 | 99 | 1022.8 |
| 20260906082912 | 70 | 155 | 0.0 | 0.0 | 0.00 | 0.41 | 0.41 | 99 | 1022.8 |
| 20260906082407 | 70 | 154 | 0.0 | 0.0 | 0.00 | 0.41 | 0.41 | 99 | 1023.0 |
| 20260906081903 | 70 | 154 | 0.0 | 0.0 | 0.00 | 0.41 | 0.41 | 99 | 1022.9 |
| 20260906081358 | 71 | 154 | 0.0 | 0.0 | 0.00 | 0.41 | 0.41 | 99 | 1023.1 |
| 20260906080854 | 71 | 155 | 0.0 | 0.0 | 0.00 | 0.41 | 0.41 | 99 | 1022.9 |
| 20260906080351 | 71 | 155 | 0.0 | 0.0 | 0.00 | 0.41 | 0.41 | 99 | 1022.9 |
| 20260906075849 | 71 | 155 | 0.0 | 0.0 | 0.00 | 0.41 | 0.41 | 99 | 1022.9 |
| 20260906075344 | 71 | 155 | 0.0 | 0.0 | 0.00 | 0.41 | 0.41 | 99 | 1022.8 |
| 20260906074840 | 71 | 155 | 0.0 | 0.0 | 0.00 | 0.41 | 0.41 | 99 | 1022.8 |
| 20260906074339 | 71 | 155 | 0.0 | 0.0 | 0.00 | 0.41 | 0.41 | 99 | 1022.7 |
| 20260906073838 | 71 | 155 | 0.0 | 0.0 | 0.00 | 0.41 | 0.41 | 99 | 1022.7 |
| 20260906073333 | 71 | 155 | 0.0 | 0.0 | 0.00 | 0.41 | 0.41 | 99 | 1022.9 |
| 20260906072830 | 71 | 155 | 0.0 | 0.0 | 0.00 | 0.41 | 0.41 | 99 | 1022.7 |
| 20260906072325 | 71 | 156 | 0.0 | 0.0 | 0.00 | 0.41 | 0.41 | 99 | 1022.8 |
| 20260906071821 | 72 | 154 | 0.9 | 4.3 | 0.00 | 0.41 | 0.41 | 99 | 1022.8 |
| 20260906071315 | 72 | 159 | 1.7 | 2.6 | 0.00 | 0.41 | 0.41 | 99 | 1022.8 |
| 20260906070813 | 72 | 160 | 1.7 | 2.6 | 0.00 | 0.41 | 0.41 | 99 | 1023.0 |
| 20260906070308 | 73 | 156 | 0.0 | 0.0 | 0.00 | 0.41 | 0.41 | 99 | 1022.9 |
| 20260906065807 | 73 | 156 | 0.0 | 0.0 | 0.00 | 0.41 | 0.41 | 99 | 1022.9 |
| 20260906065305 | 73 | 156 | 0.0 | 0.0 | 0.00 | 0.41 | 0.41 | 99 | 1023.0 |
| 20260906064758 | 73 | 156 | 0.0 | 0.0 | 0.00 | 0.41 | 0.41 | 99 | 1022.8 |
| 20260906064254 | 73 | 156 | 0.0 | 0.0 | 0.00 | 0.41 | 0.41 | 99 | 1022.8 |
| 20260906063749 | 73 | 154 | 0.9 | 0.9 | 0.00 | 0.41 | 0.41 | 99 | 1023.2 |
| 20260906063244 | 73 | 156 | 0.0 | 0.0 | 0.17 | 0.41 | 0.41 | 99 | 1023.3 |
| 20260906062739 | 73 | 153 | 1.7 | 5.2 | 0.73 | 0.40 | 0.40 | 99 | 1023.6 |
| 20260906062238 | 73 | 152 | 1.7 | 4.3 | 1.21 | 0.37 | 0.37 | 99 | 1023.9 |
| 20260906061734 | 73 | 154 | 1.7 | 2.6 | 1.44 | 0.25 | 0.25 | 99 | 1024.0 |
| 20260906061231 | 73 | 156 | 0.0 | 0.9 | 0.71 | 0.12 | 0.12 | 99 | 1024.1 |
| 20260906060726 | 73 | 155 | 0.9 | 2.6 | 0.07 | 0.01 | 0.01 | 99 | 1023.5 |
| 20260906060223 | 73 | 152 | 2.6 | 4.3 | 0.00 | 0.00 | 0.00 | 99 | 1023.7 |
| 20260906055719 | 72 | 165 | 4.3 | 7.8 | 0.00 | 0.00 | 0.00 | 99 | 1024.0 |
| 20260906055214 | 71 | 157 | 0.0 | 0.0 | 0.00 | 0.00 | 0.00 | 99 | 1023.6 |
| 20260906054709 | 71 | 157 | 0.0 | 0.0 | 0.00 | 0.00 | 0.00 | 99 | 1023.1 |
| 20260906054204 | 71 | 156 | 0.0 | 0.0 | 0.00 | 0.00 | 0.00 | 99 | 1023.1 |
| 20260906053701 | 71 | 155 | 0.0 | 0.0 | 0.00 | 0.00 | 0.00 | 99 | 1023.2 |
| 20260906053156 | 71 | 156 | 0.0 | 0.0 | 0.00 | 0.00 | 0.00 | 99 | 1023.1 |
| 20260906052651 | 71 | 156 | 0.0 | 0.0 | 0.00 | 0.00 | 0.00 | 99 | 1023.1 |
| 20260906052147 | 71 | 156 | 0.0 | 0.0 | 0.00 | 0.00 | 0.00 | 99 | 1023.4 |
| 20260906051643 | 71 | 156 | 0.0 | 0.0 | 0.00 | 0.00 | 0.00 | 99 | 1023.4 |
| 20260906051137 | 71 | 156 | 0.0 | 0.0 | 0.00 | 0.00 | 0.00 | 99 | 1023.4 |
| 20260906050633 | 71 | 156 | 0.0 | 0.0 | 0.00 | 0.00 | 0.00 | 99 | 1023.0 |
| 20260906050128 | 71 | 156 | 0.0 | 0.0 | 0.00 | 0.00 | 0.00 | 99 | 1023.1 |
| 20260906045626 | 71 | 156 | 0.0 | 0.0 | 0.00 | 0.00 | 0.00 | 99 | 1023.2 |
| 20260906045122 | 71 | 156 | 0.0 | 0.0 | 0.00 | 0.00 | 0.00 | 99 | 1023.1 |
| 20260906044618 | 71 | 156 | 0.0 | 0.0 | 0.00 | 0.00 | 0.00 | 99 | 1023.0 |
| 20260906044113 | 71 | 156 | 0.0 | 0.0 | 0.00 | 0.00 | 0.00 | 99 | 1023.2 |
| 20260906043609 | 71 | 156 | 0.0 | 0.9 | 0.00 | 0.00 | 0.00 | 99 | 1023.2 |
| 20260906043105 | 71 | 156 | 0.0 | 0.0 | 0.00 | 0.00 | 0.00 | 99 | 1023.0 |
| 20260906042604 | 71 | 156 | 0.0 | 0.0 | 0.00 | 0.00 | 0.00 | 99 | 1023.2 |
| 20260906042058 | 71 | 156 | 0.0 | 0.0 | 0.00 | 0.00 | 0.00 | 99 | 1023.1 |
| 20260906041554 | 71 | 156 | 0.0 | 0.0 | 0.00 | 0.00 | 0.00 | 99 | 1023.1 |
| 20260906041049 | 71 | 156 | 0.0 | 0.0 | 0.00 | 0.00 | 0.00 | 99 | 1023.1 |
| 20260906040544 | 72 | 157 | 0.0 | 0.0 | 0.00 | 0.00 | 0.00 | 99 | 1022.9 |
| 20260906040040 | 72 | 156 | 0.0 | 0.0 | 0.00 | 0.26 | 0.26 | 99 | 1023.1 |
| 20260906035534 | 72 | 156 | 0.0 | 0.0 | 0.00 | 0.26 | 0.26 | 99 | 1023.0 |
| 20260906035025 | 72 | 156 | 0.0 | 0.0 | 0.00 | 0.26 | 0.26 | 99 | 1023.2 |
| 20260906034525 | 72 | 156 | 0.0 | 0.0 | 0.00 | 0.26 | 0.26 | 99 | 1023.2 |
| 20260906034020 | 72 | 156 | 0.0 | 0.0 | 0.00 | 0.26 | 0.26 | 99 | 1023.3 |
| 20260906033514 | 72 | 156 | 0.0 | 0.0 | 0.00 | 0.26 | 0.26 | 99 | 1023.1 |
| 20260906033010 | 72 | 156 | 0.0 | 0.0 | 0.00 | 0.26 | 0.26 | 99 | 1022.9 |
| 20260906032507 | 72 | 156 | 0.0 | 0.0 | 0.00 | 0.26 | 0.26 | 99 | 1023.3 |
| 20260906032007 | 72 | 156 | 0.0 | 0.0 | 0.00 | 0.26 | 0.26 | 99 | 1023.0 |
| 20260906031503 | 72 | 156 | 0.0 | 0.0 | 0.00 | 0.26 | 0.26 | 99 | 1023.1 |
| 20260906030957 | 72 | 156 | 0.0 | 0.0 | 0.00 | 0.26 | 0.26 | 99 | 1023.0 |
| 20260906030451 | 72 | 156 | 0.0 | 0.0 | 0.00 | 0.26 | 0.26 | 99 | 1023.0 |
| 20260906025946 | 72 | 156 | 0.0 | 0.0 | 0.00 | 0.26 | 0.26 | 99 | 1023.0 |
| 20260906025445 | 72 | 156 | 0.0 | 0.0 | 0.00 | 0.26 | 0.26 | 99 | 1023.3 |
| 20260906024944 | 73 | 156 | 0.0 | 0.0 | 0.00 | 0.26 | 0.26 | 99 | 1023.2 |
| 20260906024444 | 73 | 156 | 0.0 | 0.0 | 0.00 | 0.26 | 0.26 | 99 | 1023.2 |
| 20260906023944 | 73 | 156 | 0.0 | 0.0 | 0.00 | 0.26 | 0.26 | 99 | 1023.2 |
| 20260906023441 | 73 | 156 | 1.7 | 1.7 | 0.00 | 0.26 | 0.26 | 99 | 1023.3 |
| 20260906022936 | 73 | 156 | 0.0 | 0.0 | 0.00 | 0.26 | 0.26 | 99 | 1023.3 |
| 20260906022432 | 73 | 156 | 0.0 | 0.0 | 0.00 | 0.26 | 0.26 | 99 | 1023.5 |
| 20260906021927 | 73 | 156 | 0.0 | 0.0 | 0.00 | 0.26 | 0.26 | 99 | 1023.5 |
| 20260906021426 | 73 | 156 | 0.0 | 0.0 | 0.00 | 0.26 | 0.26 | 99 | 1023.5 |
| 20260906020920 | 73 | 156 | 0.0 | 0.0 | 0.00 | 0.26 | 0.26 | 99 | 1023.4 |
| 20260906020415 | 73 | 156 | 0.0 | 0.0 | 0.00 | 0.26 | 0.26 | 99 | 1023.3 |
| 20260906015909 | 73 | 157 | 0.0 | 0.0 | 0.00 | 0.26 | 0.26 | 99 | 1023.2 |
| 20260906015409 | 74 | 156 | 0.0 | 0.0 | 0.00 | 0.26 | 0.26 | 99 | 1023.2 |
| 20260906014908 | 74 | 156 | 0.0 | 0.0 | 0.00 | 0.26 | 0.26 | 99 | 1022.9 |
| 20260906014403 | 74 | 156 | 0.0 | 0.0 | 0.00 | 0.26 | 0.26 | 99 | 1023.1 |
| 20260906013859 | 74 | 156 | 0.0 | 0.0 | 0.00 | 0.26 | 0.26 | 99 | 1023.2 |
| 20260906013355 | 74 | 156 | 0.0 | 0.0 | 0.00 | 0.26 | 0.26 | 99 | 1023.0 |
| 20260906012850 | 74 | 156 | 0.0 | 0.0 | 0.00 | 0.26 | 0.26 | 99 | 1023.0 |
| 20260906012345 | 74 | 156 | 0.0 | 0.0 | 0.00 | 0.26 | 0.26 | 99 | 1023.0 |
| 20260906011844 | 74 | 156 | 0.0 | 0.0 | 0.00 | 0.26 | 0.26 | 99 | 1022.9 |
| 20260906011339 | 75 | 156 | 0.0 | 0.0 | 0.00 | 0.26 | 0.26 | 99 | 1022.8 |
| 20260906010835 | 75 | 156 | 0.0 | 0.0 | 0.00 | 0.26 | 0.26 | 99 | 1022.8 |
| 20260906010331 | 75 | 156 | 0.0 | 0.0 | 0.00 | 0.26 | 0.26 | 99 | 1022.8 |
| 20260906005826 | 75 | 157 | 0.0 | 0.0 | 0.00 | 0.26 | 0.26 | 99 | 1022.9 |
| 20260906005326 | 75 | 157 | 0.0 | 0.0 | 0.00 | 0.26 | 0.26 | 99 | 1022.7 |
| 20260906004825 | 75 | 156 | 0.0 | 0.0 | 0.00 | 0.26 | 0.26 | 99 | 1022.7 |
| 20260906004324 | 76 | 157 | 0.0 | 0.0 | 0.00 | 0.26 | 0.26 | 99 | 1022.5 |
| 20260906003820 | 76 | 156 | 0.0 | 0.0 | 0.00 | 0.26 | 0.26 | 98 | 1022.6 |
| 20260906003315 | 76 | 156 | 0.0 | 0.0 | 0.00 | 0.26 | 0.26 | 98 | 1022.5 |
| 20260906002810 | 76 | 156 | 0.0 | 0.0 | 0.00 | 0.26 | 0.26 | 98 | 1022.3 |
| 20260906002309 | 76 | 156 | 0.0 | 0.0 | 0.00 | 0.26 | 0.26 | 98 | 1022.4 |
| 20260906001806 | 77 | 156 | 0.0 | 0.0 | 0.00 | 0.26 | 0.26 | 97 | 1022.3 |
| 20260906001301 | 77 | 156 | 0.0 | 0.0 | 0.00 | 0.26 | 0.26 | 97 | 1022.2 |
| 20260906000755 | 77 | 156 | 0.0 | 0.0 | 0.00 | 0.26 | 0.26 | 97 | 1022.4 |
| 20260906000250 | 77 | 156 | 0.0 | 0.0 | 0.00 | 0.26 | 0.26 | 96 | 1022.4 |
| 20260905235745 | 77 | 156 | 0.0 | 0.0 | 0.00 | 0.26 | 0.26 | 96 | 1022.3 |
| 20260905235244 | 77 | 156 | 0.0 | 0.0 | 0.00 | 0.26 | 0.26 | 95 | 1022.4 |
| 20260905234740 | 78 | 156 | 0.0 | 0.0 | 0.00 | 0.26 | 0.26 | 95 | 1022.5 |
| 20260905234235 | 78 | 156 | 0.9 | 0.9 | 0.00 | 0.26 | 0.26 | 96 | 1022.4 |
| 20260905233731 | 78 | 156 | 0.0 | 0.9 | 0.00 | 0.26 | 0.26 | 94 | 1022.4 |
| 20260905233230 | 79 | 156 | 0.0 | 0.9 | 0.00 | 0.26 | 0.26 | 94 | 1022.3 |
| 20260905232730 | 79 | 156 | 0.0 | 0.0 | 0.00 | 0.26 | 0.26 | 93 | 1022.6 |
| 20260905232226 | 79 | 156 | 0.0 | 0.0 | 0.00 | 0.26 | 0.26 | 93 | 1022.3 |
| 20260905231721 | 79 | 156 | 0.0 | 0.0 | 0.00 | 0.26 | 0.26 | 93 | 1022.4 |
| 20260905231217 | 79 | 156 | 0.0 | 0.9 | 0.00 | 0.26 | 0.26 | 93 | 1022.6 |
| 20260905230713 | 80 | 156 | 0.0 | 0.0 | 0.00 | 0.26 | 0.26 | 90 | 1022.4 |
| 20260905230210 | 80 | 156 | 0.0 | 1.7 | 0.00 | 0.26 | 0.26 | 90 | 1022.5 |
| 20260905225710 | 80 | 156 | 0.0 | 0.0 | 0.00 | 0.26 | 0.26 | 89 | 1022.5 |
| 20260905225206 | 80 | 156 | 0.0 | 0.0 | 0.00 | 0.26 | 0.26 | 88 | 1022.3 |
| 20260905224705 | 81 | 156 | 0.0 | 0.0 | 0.00 | 0.26 | 0.26 | 88 | 1022.3 |
| 20260905224200 | 82 | 156 | 0.0 | 0.0 | 0.00 | 0.26 | 0.26 | 87 | 1022.4 |
| 20260905223656 | 82 | 156 | 0.0 | 0.0 | 0.00 | 0.26 | 0.26 | 86 | 1022.6 |
| 20260905223153 | 82 | 156 | 0.0 | 0.0 | 0.00 | 0.26 | 0.26 | 86 | 1022.6 |
| 20260905222648 | 82 | 156 | 0.0 | 0.0 | 0.00 | 0.26 | 0.26 | 85 | 1022.6 |
| 20260905222148 | 82 | 156 | 0.0 | 0.0 | 0.00 | 0.26 | 0.26 | 85 | 1022.5 |
| 20260905221644 | 82 | 157 | 0.0 | 0.9 | 0.00 | 0.26 | 0.26 | 84 | 1022.7 |
| 20260905221141 | 83 | 157 | 0.0 | 0.9 | 0.00 | 0.26 | 0.26 | 84 | 1022.6 |
| 20260905220636 | 83 | 157 | 0.0 | 1.7 | 0.00 | 0.26 | 0.26 | 83 | 1022.4 |
| 20260905220132 | 83 | 156 | 1.7 | 2.6 | 0.00 | 0.26 | 0.26 | 84 | 1022.3 |
| 20260905215631 | 83 | 157 | 0.9 | 2.6 | 0.00 | 0.26 | 0.26 | 83 | 1022.3 |
| 20260905215127 | 85 | 155 | 2.6 | 4.3 | 0.00 | 0.26 | 0.26 | 81 | 1022.3 |
| 20260905214623 | 83 | 157 | 0.9 | 1.7 | 0.00 | 0.26 | 0.26 | 81 | 1022.3 |
| 20260905214118 | 83 | 153 | 5.2 | 8.7 | 0.00 | 0.26 | 0.26 | 85 | 1022.2 |
| 20260905213613 | 84 | 156 | 1.7 | 4.3 | 0.00 | 0.26 | 0.26 | 82 | 1022.2 |
| 20260905213108 | 84 | 157 | 3.5 | 4.3 | 0.00 | 0.26 | 0.26 | 84 | 1022.3 |
| 20260905212603 | 83 | 158 | 1.7 | 1.7 | 0.00 | 0.26 | 0.26 | 81 | 1022.4 |
| 20260905212103 | 83 | 155 | 3.5 | 4.3 | 0.00 | 0.26 | 0.26 | 84 | 1022.1 |
| 20260905211558 | 82 | 156 | 2.6 | 4.3 | 0.00 | 0.26 | 0.26 | 84 | 1021.9 |
| 20260905211053 | 84 | 156 | 3.5 | 4.3 | 0.00 | 0.26 | 0.26 | 82 | 1022.1 |
| 20260905210549 | 84 | 161 | 2.6 | 4.3 | 0.00 | 0.26 | 0.26 | 81 | 1021.8 |
| 20260905210044 | 84 | 152 | 2.6 | 4.3 | 0.00 | 0.26 | 0.26 | 82 | 1021.8 |
| 20260905205543 | 84 | 153 | 2.6 | 4.3 | 0.00 | 0.26 | 0.26 | 81 | 1022.2 |
| 20260905205042 | 84 | 151 | 4.3 | 5.2 | 0.00 | 0.26 | 0.26 | 81 | 1021.7 |
| 20260905204537 | 84 | 156 | 0.0 | 4.3 | 0.00 | 0.26 | 0.26 | 80 | 1021.8 |
| 20260905204033 | 84 | 155 | 2.6 | 4.3 | 0.00 | 0.26 | 0.26 | 80 | 1021.8 |
| 20260905203532 | 87 | 161 | 2.6 | 5.2 | 0.00 | 0.26 | 0.26 | 77 | 1021.8 |
| 20260905203028 | 84 | 154 | 5.2 | 6.1 | 0.00 | 0.26 | 0.26 | 81 | 1021.8 |
| 20260905202523 | 89 | 162 | 5.2 | 7.8 | 0.00 | 0.26 | 0.26 | 63 | 1021.9 |
| 20260905202019 | 91 | 155 | 4.3 | 6.1 | 0.00 | 0.26 | 0.26 | 75 | 1022.1 |
| 20260905201514 | 90 | 161 | 2.6 | 4.3 | 0.00 | 0.26 | 0.26 | 68 | 1021.9 |
| 20260905201014 | 86 | 154 | 4.3 | 6.1 | 0.00 | 0.26 | 0.26 | 68 | 1022.1 |
| 20260905200509 | 84 | 169 | 5.2 | 6.1 | 0.00 | 0.26 | 0.26 | 78 | 1022.1 |
| 20260905200009 | 85 | 156 | 2.6 | 4.3 | 0.00 | 0.26 | 0.26 | 80 | 1022.1 |
| 20260905195503 | 85 | 149 | 4.3 | 7.0 | 0.00 | 0.26 | 0.26 | 75 | 1022.1 |
| 20260905194958 | 85 | 158 | 3.5 | 5.2 | 0.00 | 0.26 | 0.26 | 83 | 1022.1 |
| 20260905194457 | 88 | 157 | 2.6 | 4.3 | 0.00 | 0.26 | 0.26 | 77 | 1022.4 |
| 20260905193952 | 88 | 165 | 3.5 | 4.3 | 0.00 | 0.26 | 0.26 | 69 | 1022.7 |
| 20260905193452 | 85 | 152 | 1.7 | 5.2 | 0.00 | 0.26 | 0.26 | 82 | 1022.5 |
| 20260905192947 | 83 | 155 | 4.3 | 5.2 | 0.00 | 0.26 | 0.26 | 86 | 1022.6 |
| 20260905192443 | 84 | 157 | 3.5 | 4.3 | 0.00 | 0.26 | 0.26 | 85 | 1022.6 |
| 20260905191938 | 84 | 155 | 4.3 | 5.2 | 0.00 | 0.26 | 0.26 | 87 | 1022.6 |
| 20260905191437 | 86 | 162 | 2.6 | 4.3 | 0.00 | 0.26 | 0.26 | 85 | 1022.9 |
| 20260905190937 | 85 | 157 | 4.3 | 5.2 | 0.00 | 0.26 | 0.26 | 84 | 1022.9 |
| 20260905190434 | 84 | 156 | 1.7 | 4.3 | 0.00 | 0.26 | 0.26 | 87 | 1023.2 |
| 20260905185934 | 85 | 157 | 0.0 | 4.3 | 0.00 | 0.26 | 0.26 | 79 | 1023.3 |
| 20260905185429 | 84 | 157 | 2.6 | 4.3 | 0.00 | 0.26 | 0.26 | 88 | 1023.5 |
| 20260905184927 | 86 | 161 | 3.5 | 4.3 | 0.00 | 0.26 | 0.26 | 85 | 1023.4 |
| 20260905184422 | 83 | 155 | 2.6 | 4.3 | 0.00 | 0.26 | 0.26 | 82 | 1023.5 |
| 20260905183921 | 84 | 158 | 3.5 | 4.3 | 0.00 | 0.26 | 0.26 | 88 | 1023.6 |
| 20260905183416 | 84 | 161 | 1.7 | 4.3 | 0.00 | 0.26 | 0.26 | 89 | 1023.9 |
| 20260905182911 | 84 | 156 | 2.6 | 4.3 | 0.00 | 0.26 | 0.26 | 85 | 1023.8 |
| 20260905182410 | 86 | 157 | 1.7 | 2.6 | 0.00 | 0.26 | 0.26 | 80 | 1023.7 |
| 20260905181906 | 84 | 156 | 0.9 | 2.6 | 0.00 | 0.26 | 0.26 | 85 | 1024.1 |
| 20260905181406 | 85 | 158 | 0.9 | 2.6 | 0.00 | 0.26 | 0.26 | 78 | 1023.9 |
| 20260905180905 | 85 | 159 | 3.5 | 6.1 | 0.00 | 0.26 | 0.26 | 80 | 1023.9 |
| 20260905180355 | 83 | 159 | 0.0 | 2.6 | 0.00 | 0.26 | 0.26 | 88 | 1024.3 |
| 20260905175850 | 82 | 154 | 1.7 | 2.6 | 0.00 | 0.26 | 0.26 | 89 | 1024.2 |
| 20260905175349 | 82 | 157 | 2.6 | 4.3 | 0.00 | 0.26 | 0.26 | 89 | 1024.4 |
| 20260905174850 | 83 | 155 | 1.7 | 1.7 | 0.00 | 0.26 | 0.26 | 88 | 1024.3 |
| 20260905174346 | 85 | 155 | 1.7 | 2.6 | 0.00 | 0.26 | 0.26 | 85 | 1024.3 |
| 20260905173841 | 82 | 153 | 1.7 | 1.7 | 0.00 | 0.26 | 0.26 | 84 | 1024.6 |
| 20260905173337 | 80 | 156 | 1.7 | 2.6 | 0.00 | 0.26 | 0.26 | 93 | 1024.4 |
| 20260905172832 | 81 | 155 | 2.6 | 4.3 | 0.00 | 0.26 | 0.26 | 94 | 1024.4 |
| 20260905172330 | 82 | 157 | 0.9 | 1.7 | 0.00 | 0.26 | 0.26 | 89 | 1024.3 |
| 20260905171826 | 80 | 158 | 0.9 | 2.6 | 0.00 | 0.26 | 0.26 | 89 | 1024.2 |
| 20260905171323 | 79 | 169 | 2.6 | 4.3 | 0.00 | 0.26 | 0.26 | 91 | 1024.0 |
| 20260905170819 | 79 | 162 | 2.6 | 4.3 | 0.00 | 0.26 | 0.26 | 93 | 1024.4 |
| 20260905170315 | 78 | 156 | 1.7 | 4.3 | 0.00 | 0.26 | 0.26 | 95 | 1024.2 |
| 20260905165813 | 77 | 155 | 0.9 | 2.6 | 0.00 | 0.26 | 0.26 | 98 | 1024.5 |
| 20260905165310 | 75 | 167 | 4.3 | 6.1 | 0.00 | 0.26 | 0.26 | 99 | 1024.5 |
| 20260905164809 | 75 | 167 | 3.5 | 5.2 | 0.00 | 0.26 | 0.26 | 99 | 1024.6 |
| 20260905164304 | 75 | 168 | 4.3 | 6.1 | 0.00 | 0.26 | 0.26 | 99 | 1024.7 |
| 20260905163759 | 74 | 165 | 4.3 | 6.1 | 0.00 | 0.26 | 0.26 | 99 | 1024.7 |
| 20260905163255 | 73 | 167 | 4.3 | 6.1 | 0.00 | 0.26 | 0.26 | 99 | 1025.1 |
| 20260905162751 | 74 | 157 | 0.9 | 1.7 | 0.00 | 0.26 | 0.26 | 99 | 1025.3 |
| 20260905162251 | 74 | 157 | 0.0 | 0.9 | 0.00 | 0.26 | 0.26 | 99 | 1025.1 |
| 20260905161745 | 73 | 156 | 0.0 | 0.0 | 0.00 | 0.26 | 0.26 | 99 | 1025.3 |
| 20260905161244 | 73 | 156 | 0.0 | 0.0 | 0.00 | 0.26 | 0.26 | 99 | 1025.4 |
| 20260905160743 | 73 | 155 | 0.0 | 0.9 | 0.00 | 0.26 | 0.26 | 99 | 1025.6 |
| 20260905160238 | 73 | 149 | 2.6 | 2.6 | 0.00 | 0.26 | 0.26 | 99 | 1025.7 |
| 20260905155738 | 73 | 160 | 1.7 | 2.6 | 0.00 | 0.26 | 0.26 | 99 | 1025.8 |
| 20260905155236 | 73 | 158 | 0.0 | 0.0 | 0.00 | 0.26 | 0.26 | 99 | 1026.1 |
| 20260905154731 | 73 | 156 | 0.0 | 0.0 | 0.00 | 0.26 | 0.26 | 99 | 1026.0 |
| 20260905154227 | 73 | 156 | 0.0 | 0.0 | 0.00 | 0.26 | 0.26 | 99 | 1026.1 |
| 20260905153722 | 72 | 156 | 0.0 | 0.0 | 0.07 | 0.26 | 0.26 | 99 | 1026.0 |
| 20260905153218 | 72 | 156 | 0.0 | 0.0 | 0.00 | 0.25 | 0.25 | 99 | 1025.9 |
| 20260905152713 | 72 | 155 | 0.0 | 1.7 | 0.00 | 0.25 | 0.25 | 99 | 1026.0 |
| 20260905152207 | 72 | 156 | 0.0 | 0.0 | 0.00 | 0.25 | 0.25 | 99 | 1026.2 |
| 20260905151707 | 72 | 156 | 0.9 | 1.7 | 0.05 | 0.25 | 0.25 | 99 | 1026.7 |
| 20260905151202 | 72 | 156 | 0.0 | 0.0 | 0.07 | 0.24 | 0.24 | 99 | 1026.8 |
| 20260905150657 | 72 | 156 | 0.0 | 0.0 | 0.12 | 0.23 | 0.23 | 99 | 1026.9 |
| 20260905150156 | 73 | 156 | 0.0 | 0.0 | 0.12 | 0.22 | 0.22 | 99 | 1027.0 |
| 20260905145654 | 73 | 156 | 0.0 | 0.0 | 0.12 | 0.21 | 0.21 | 99 | 1027.0 |
| 20260905145154 | 73 | 157 | 0.0 | 0.0 | 0.12 | 0.20 | 0.20 | 99 | 1027.5 |
| 20260905144649 | 73 | 155 | 0.0 | 0.9 | 0.05 | 0.19 | 0.19 | 99 | 1027.3 |
| 20260905144148 | 73 | 156 | 0.0 | 0.0 | 0.07 | 0.18 | 0.18 | 99 | 1027.0 |
| 20260905143643 | 73 | 156 | 0.0 | 1.7 | 0.07 | 0.18 | 0.18 | 99 | 1027.2 |
| 20260905143143 | 73 | 156 | 0.0 | 0.0 | 0.00 | 0.17 | 0.17 | 99 | 1027.2 |
| 20260905142641 | 73 | 156 | 0.0 | 2.6 | 0.00 | 0.17 | 0.17 | 99 | 1027.0 |
| 20260905142136 | 73 | 156 | 0.0 | 0.0 | 0.00 | 0.17 | 0.17 | 99 | 1026.6 |
| 20260905141636 | 74 | 155 | 0.9 | 2.6 | 0.05 | 0.17 | 0.17 | 99 | 1026.3 |
| 20260905141132 | 74 | 155 | 2.6 | 2.6 | 0.12 | 0.16 | 0.16 | 99 | 1026.2 |
| 20260905140627 | 74 | 156 | 0.9 | 7.0 | 0.42 | 0.16 | 0.16 | 99 | 1026.0 |
| 20260905140127 | 75 | 152 | 0.9 | 5.2 | 0.85 | 0.14 | 0.14 | 99 | 1025.8 |
| 20260905135622 | 77 | 153 | 0.9 | 1.7 | 0.12 | 0.02 | 0.02 | 96 | 1026.2 |
| 20260905135117 | 77 | 161 | 4.3 | 6.1 | 0.00 | 0.00 | 0.00 | 94 | 1025.7 |
| 20260905134612 | 77 | 160 | 1.7 | 1.7 | 0.00 | 0.00 | 0.00 | 96 | 1025.2 |
| 20260905134110 | 76 | 158 | 0.9 | 0.9 | 0.00 | 0.00 | 0.00 | 98 | 1024.7 |
| 20260905133607 | 76 | 156 | 0.0 | 0.9 | 0.00 | 0.00 | 0.00 | 98 | 1025.0 |
| 20260905133106 | 74 | 156 | 0.0 | 1.7 | 0.00 | 0.00 | 0.00 | 99 | 1025.2 |
| 20260905132606 | 74 | 156 | 0.0 | 0.9 | 0.00 | 0.00 | 0.00 | 99 | 1025.2 |
| 20260905132101 | 73 | 156 | 0.9 | 0.9 | 0.00 | 0.00 | 0.00 | 99 | 1025.2 |
| 20260905131556 | 73 | 156 | 0.0 | 0.0 | 0.00 | 0.00 | 0.00 | 99 | 1025.1 |
| 20260905131052 | 73 | 156 | 0.0 | 0.0 | 0.00 | 0.00 | 0.00 | 99 | 1025.3 |
| 20260905130550 | 72 | 155 | 0.0 | 0.0 | 0.00 | 0.00 | 0.00 | 99 | 1025.3 |
| 20260905130046 | 72 | 156 | 0.9 | 0.9 | 0.00 | 0.00 | 0.00 | 99 | 1025.5 |
| 20260905125545 | 72 | 156 | 0.0 | 0.9 | 0.00 | 0.00 | 0.00 | 99 | 1025.4 |
| 20260905125041 | 71 | 156 | 0.0 | 0.0 | 0.00 | 0.00 | 0.00 | 99 | 1025.4 |
| 20260905124537 | 71 | 157 | 0.0 | 0.0 | 0.00 | 0.00 | 0.00 | 99 | 1025.3 |
| 20260905124033 | 71 | 156 | 0.0 | 0.0 | 0.00 | 0.00 | 0.00 | 99 | 1025.3 |
| 20260905123528 | 71 | 156 | 0.0 | 0.0 | 0.00 | 0.00 | 0.00 | 99 | 1025.3 |
| 20260905123025 | 71 | 156 | 0.0 | 0.0 | 0.00 | 0.00 | 0.00 | 99 | 1025.4 |
| 20260905122519 | 70 | 156 | 0.0 | 0.0 | 0.00 | 0.00 | 0.00 | 99 | 1025.5 |
| 20260905122014 | 70 | 156 | 0.0 | 0.0 | 0.00 | 0.00 | 0.00 | 99 | 1025.4 |
| 20260905121509 | 70 | 156 | 0.0 | 0.0 | 0.00 | 0.00 | 0.00 | 99 | 1025.3 |
| 20260905121008 | 70 | 157 | 0.0 | 0.0 | 0.00 | 0.00 | 0.00 | 99 | 1025.1 |
| 20260905120502 | 70 | 156 | 0.0 | 0.0 | 0.00 | 0.00 | 0.00 | 99 | 1025.2 |
| 20260905115958 | 70 | 156 | 0.0 | 0.0 | 0.00 | 0.00 | 0.00 | 99 | 1025.1 |
| 20260905115457 | 69 | 155 | 0.0 | 0.0 | 0.00 | 0.00 | 0.00 | 99 | 1025.2 |
| 20260905114952 | 69 | 155 | 0.0 | 0.0 | 0.00 | 0.00 | 0.00 | 99 | 1025.1 |
| 20260905114451 | 69 | 155 | 0.0 | 0.0 | 0.00 | 0.00 | 0.00 | 99 | 1024.9 |
| 20260905113950 | 69 | 154 | 0.0 | 0.0 | 0.00 | 0.00 | 0.00 | 99 | 1024.9 |
| 20260905113446 | 69 | 154 | 0.0 | 0.0 | 0.00 | 0.00 | 0.00 | 99 | 1025.1 |
| 20260905112941 | 69 | 154 | 0.0 | 0.0 | 0.00 | 0.00 | 0.00 | 99 | 1024.8 |
| 20260905112436 | 69 | 154 | 0.0 | 0.0 | 0.00 | 0.00 | 0.00 | 99 | 1024.7 |
| 20260905111931 | 69 | 154 | 0.0 | 0.0 | 0.00 | 0.00 | 0.00 | 99 | 1024.9 |
| 20260905111431 | 69 | 154 | 0.0 | 0.0 | 0.00 | 0.00 | 0.00 | 99 | 1024.9 |
| 20260905110926 | 69 | 154 | 0.0 | 0.9 | 0.00 | 0.00 | 0.00 | 99 | 1024.6 |
| 20260905110425 | 69 | 154 | 0.0 | 0.0 | 0.00 | 0.00 | 0.00 | 99 | 1024.8 |
| 20260905105920 | 69 | 154 | 0.0 | 0.9 | 0.00 | 0.00 | 0.00 | 99 | 1024.5 |
| 20260905105420 | 69 | 154 | 0.0 | 0.0 | 0.00 | 0.00 | 0.00 | 99 | 1024.5 |
| 20260905104920 | 69 | 155 | 0.0 | 0.0 | 0.00 | 0.00 | 0.00 | 99 | 1024.4 |
| 20260905104416 | 69 | 154 | 0.0 | 0.0 | 0.00 | 0.00 | 0.00 | 99 | 1024.5 |